Hourly Weather Roundup
Issued by NWS Central Illinois

Home | Current Version | Previous Version | Text Only | Print | Product List | Glossary On
Versions: 1 2 3 4 5 6 7 8 9 10 11 12 13 14 15 16 17 18 19 20 21 22 23 24 25 26 27 28 29 30 31 32 33 34 35 36 37 38 39 40 41 42 43 44 45 46 47 48 49 50
000
NZUS43 KILX 262210
HWRILX

AREA WEATHER ROUNDUP
NATIONAL WEATHER SERVICE, LINCOLN IL
500 PM CDT THU MAY 26 2016


CITY           SKY/WX    TMP DP  RH WIND       PRES   REMARKS
BLOOMINGTON    SUNNY     84  69  60 S14       29.87F HX  87
CHAMPAIGN      MOSUNNY   81  66  60 SW13      29.90F HX  83
DANVILLE       CLOUDY    80  67  65 SW12G18   29.88F HX  82
DECATUR        MOSUNNY   81  67  62 S10       29.87F HX  83
EFFINGHAM      CLOUDY    73  67  82 SE6       29.93F
FLORA          CLOUDY    72  66  80 SW8       29.93F
GALESBURG      MOSUNNY   83  63  50 S5        29.83S HX  84
JACKSONVILLE   SUNNY     83  68  60 S12       29.84S HX  86
LACON          SUNNY     85  62  46 S9        29.82F HX  85
LAWRENCEVILLE  CLOUDY    72  67  84 SE8       29.95S
LITCHFIELD     CLOUDY    76  67  73 S17       29.90F
$$


CITY           SKY/WX    TMP DP  RH WIND       PRES   REMARKS
LINCOLN        MOSUNNY   84  70  63 S9        29.84F HX  88
MACOMB         MOSUNNY   83  66  55 S7        29.84F HX  85
MATTOON        CLOUDY    74  65  73 S8        29.90F
MT CARMEL AP   CLOUDY    71  64  79 SE8       29.95S
OLNEY-NOBLE AP CLOUDY    70  64  83 S3        29.96R
PARIS          CLOUDY    75  66  74 S7        29.92F
PEORIA         SUNNY     84  63  49 SW13      29.83F HX  85
PONTIAC        SUNNY     87  59  38 SW10      29.85F HX  87
RANTOUL        CLOUDY    82  68  62 SW12      29.88F HX  85
ROBINSON       CLOUDY    71  66  84 S7        29.95S
SPRINGFIELD    CLOUDY    83  70  64 S13       29.85F HX  87
TAYLORVILLE    CLOUDY    78  69  73 S16       29.88F HX  80
$$

...REGIONAL REPORTS...


CITY           SKY/WX    TMP DP  RH WIND       PRES   REMARKS
CHICAGO O`HARE PTSUNNY   82  63  52 SW9       29.83F HX  83
KANKAKEE       MOSUNNY   85  65  50 SW12      29.87S HX  87
MOLINE         CLOUDY    88  64  44 CALM      29.80F HAZE    HX  89
MOUNT STERLING MOSUNNY   82  68  62 S13       29.81F HX  84
MOUNT VERNON   CLOUDY    68  61  77 SW7       29.93F
PITTSFIELD     SUNNY     83  69  62 S10       29.84F HX  86
QUINCY         CLOUDY    82  64  54 S8        29.82R HX  83
ROCKFORD       PTSUNNY   84  62  47 VRB6      29.83F HX  85
$$


CITY           SKY/WX    TMP DP  RH WIND       PRES   REMARKS
BURLINGTON     PTSUNNY   81  67  62 S10       29.81F HX  83
CEDAR RAPIDS   MOSUNNY   81  63  54 E5        29.80F HX  82
DES MOINES     CLOUDY    76  65  68 SE6       29.85R
KIRKSVILLE     CLOUDY    76  62  62 NW10      29.81R
OTTUMWA        CLOUDY    80  64  58 S12       29.81R HX  82
ST LOUIS       MOSUNNY   81  66  60 S13       29.88F HX  83
$$


CITY           SKY/WX    TMP DP  RH WIND       PRES   REMARKS
TERRE HAUTE    CLOUDY    75  64  68 S8        29.94F
EVANSVILLE     CLOUDY    71  65  81 S20G29    29.95F
INDIANAPOLIS   CLOUDY    75  64  68 S10       29.94F
LAFAYETTE      MOSUNNY   78  64  61 SW10      29.90F HX  80
MADISON        MOSUNNY   83  54  36 NW10      29.80F HX  82
MILWAUKEE      PTSUNNY   83  61  47 W8G18     29.82F HX  83
$$





USA.gov is the U.S. government's official web portal to all federal, state and local government web resources and services.